Location: �perlecques
(50.8057°N, 2.1521°E)
Time: 01:13:53
(UTC+00:00)

Cosmos 468 Rocket - Pass Details

Date: 09 April 2020
Orbit: 745 x 779 km, 74.0° (Epoch: 30 May)

Event Time Altitude Azimuth Distance (km) Brightness Sun altitude
Rises 20:32:24 0° 335° (NNW) 3,222 8.4 -17.1°
Reaches altitude 10° 20:34:47 10° 335° (NNW) 2,288 7.4 -17.4°
Maximum altitude 20:39:58 84° 248° (WSW) 759 3.9 -18.0°
Enters shadow 20:42:38 29° 161° (SSE) 1,342 4.8 -18.3°
